HULIANWANG DIGUI-84

基本信息
目录编号:
65819
目录名称:
HULIANWANG DIGUI-84
国际标识:
2025-220C
轨道中心:
EARTH
卫星名称:
HULIANWANG DIGUI-84
卫星全名:
HULIANWANG DIGUI-84
卫星状态:
在轨 (已飞行23 天)
发射日期:
2025-09-27 UTC
国别 :
中国 (CN)
星等 :
--
轨道信息
数据来源 国际轨道数据
星历时间: 2025-10-15T00:36:34+0800
5天前
查看轨道信息
半长轴: 7399.384km
偏心率: 0.001002
轨道倾角: 86.471°
近地点辐角 186.937°
升交点赤经 127.200°
平近点角 173.165°
近地点: 1013.834km
远地点: 1028.664km
周期: 105.573分钟
每日圈数: 13.639845
详细信息
使用方式:
暂无
2D轨道图
3D轨道图
轨道高度分析图
轨道倾角分析图
轨道综合分析图
查看轨道综合分析图